Temperature
9 9 9 9 9 10 10 10 9 8 9 9 9 9 9 9 9 9 9 9 9 8 8 8 8 8 8 8 8 7 7 7 7 7 7 7 7 7
9 9 9 9 9 9 9 9 9 9 8 9 9 9 9 8 8 8 8 8 8 8 8 8 7 7 7 7 7 7 7 7 7 7 6 6 6 6
8 8 8 8 8 8 8 8 8 8 8 8 8 8 8 8 7 7 7 7 7 7 7 7 7 7 7 7 7 6 6 6 6 6 6 6 6 6
8 8 8 8 8 8 8 8 8 7 7 8 8 8 7 7 7 7 7 7 6 6 6 6 6 6 6 6 6 6 6 5 5 5 5 5 5 5
7 7 7 7 7 7 7 7 7 7 7 7 7 7 7 6 6 6 6 6 6 6 6 6 5 5 5 5 5 5 5 5 5 5 5 5 5 5
7 7 7 6 7 7 7 7 7 7 6 6 6 6 6 6 6 6 6 5 5 5 5 5 5 5 5 5 4 4 4 4 4 4 4 4 4 4
6 6 6 6 6 6 6 6 6 6 6 6 5 5 5 5 5 5 5 5 5 4 4 4 4 4 4 4 4 4 4 4 4 4 4 4 4 4
5 5 5 5 5 6 5 6 6 6 5 5 5 5 5 5 5 5 5 4 4 4 4 4 4 4 3 3 3 3 3 3 3 3 3 3 3 3
4 5 5 5 5 5 5 5 5 5 5 5 5 5 5 5 5 4 4 4 4 4 4 3 3 3 3 3 3 3 3 3 3 3 3 3 3 3
4 4 4 4 4 4 4 4 4 4 4 4 4 4 4 4 4 4 4 3 3 3 3 3 3 2 2 2 2 2 2 2 2 2 2 2 2 2
3 3 3 3 3 3 3 3 3 3 4 4 4 3 3 3 3 3 3 2 2 2 2 2 2 2 2 2 2 2 1 1 1 1 1 2 2 2
2 2 2 2 2 2 3 3 3 3 3 3 3 3 3 3 3 3 2 2 2 2 2 1 1 1 1 1 1 1 1 1 1 1 1 1 1 1
1 1 2 2 2 2 2 2 2 2 2 2 2 2 2 2 2 2 2 2 2 1 1 1 1 1 0 0 1 1 0 0 0 0 0 0 0 0
0 1 1 1 1 1 1 1 1 1 1 1 1 1 1 1 1 1 1 1 1 1 1 1 0 0 0 0 0 -0 -0 -0 -0 -0 -0 -0 -0 -0
-0 -0 -0 0 0 0 0 1 1 1 1 1 1 1 1 1 1 1 1 0 0 0 0 -0 -0 -0 -0 -0 -0 -0 -1 -1 -1 -1 -1 -1 -1 -1
-1 -0 -0 -0 -0 -0 -0 -0 -0 -0 -0 -0 0 -0 -0 -0 -0 -0 -0 -0 -1 -1 -1 -1 -1 -1 -1 -1 -1 -1 -1 -1 -1 -1 -1 -1 -1 -1
-1 -1 -1 -1 -1 -1 -1 -1 -1 -1 -1 -1 -1 -1 -1 -1 -1 -1 -1 -1 -1 -1 -1 -2 -2 -2 -2 -1 -1 -1 -1 -2 -2 -2 -2 -2 -2 -2
-1 -1 -1 -1 -2 -2 -2 -1 -1 -1 -1 -1 -1 -1 -1 -1 -1 -1 -1 -1 -2 -2 -2 -2 -2 -2 -2 -2 -2 -2 -2 -2 -2 -2 -2 -2 -2 -2
-2 -2 -2 -2 -2 -2 -2 -2 -2 -2 -2 -2 -2 -2 -2 -2 -2 -2 -2 -2 -2 -2 -2 -2 -2 -2 -3 -3 -3 -3 -3 -3 -3 -3 -3 -3 -3 -3
-2 -3 -3 -3 -3 -3 -3 -3 -2 -2 -3 -2 -2 -2 -2 -2 -2 -2 -2 -2 -3 -3 -3 -3 -3 -3 -3 -3 -3 -3 -3 -3 -3 -3 -3 -3 -3 -3
-3 -3 -3 -3 -3 -3 -3 -3 -3 -3 -3 -3 -3 -3 -3 -3 -3 -3 -3 -3 -3 -3 -3 -3 -3 -4 -4 -4 -4 -4 -4 -4 -4 -4 -4 -4 -4 -3
-4 -4 -4 -4 -3 -3 -3 -3 -3 -3 -3 -3 -3 -4 -4 -4 -4 -4 -4 -4 -4 -4 -4 -4 -4 -4 -4 -4 -4 -4 -5 -5 -5 -5 -5 -5 -5 -4
-4 -4 -4 -4 -4 -4 -4 -4 -4 -4 -4 -4 -4 -4 -4 -4 -4 -4 -4 -4 -4 -4 -4 -4 -5 -5 -5 -5 -5 -5 -5 -5 -5 -5 -5 -5 -5 -5
Wind_Speed
7 8 7 6 6 6 6 6 7 8 10 7 4 5 7 8 10 9 8 10 10 9 8 8 7 6 6 6 5 4 4 4 4 4 4 3 3 4
5 6 7 6 5 5 6 6 6 8 9 6 5 4 6 6 9 9 9 10 10 10 9 8 7 6 5 5 5 4 4 4 3 3 3 2 2 3
5 6 8 7 6 6 5 5 6 6 8 6 3 3 4 6 5 6 7 7 8 10 9 8 7 6 5 6 6 4 3 2 2 2 2 2 2 2
6 6 7 6 7 6 6 6 6 6 6 8 5 3 5 6 6 5 5 6 6 9 9 9 8 7 6 5 5 4 4 3 3 2 2 1 1 2
7 7 7 6 8 6 6 7 6 5 5 6 6 3 3 3 3 3 3 3 4 7 8 8 8 7 6 6 5 5 5 4 3 3 2 1 1 2
6 6 6 7 8 8 7 7 6 6 5 5 5 4 3 2 3 3 3 3 3 4 5 6 6 7 7 6 6 5 5 4 3 3 2 1 0 1
5 5 6 7 8 8 7 7 6 6 5 5 5 4 4 3 5 4 4 2 3 3 2 3 3 3 4 5 5 5 5 4 4 4 3 2 0 1
4 4 5 5 6 7 8 8 7 7 7 6 6 6 6 5 4 4 3 3 4 3 3 2 2 2 2 3 5 5 5 4 4 4 3 2 1 1
4 4 4 4 5 4 5 5 6 8 8 8 7 7 7 7 6 5 5 4 3 4 3 2 2 2 1 3 4 5 5 5 5 4 3 3 1 1
4 4 4 4 4 4 3 3 4 4 5 5 6 6 6 6 7 6 5 3 3 1 2 2 2 1 1 1 3 5 5 5 4 4 4 3 2 1
3 3 3 4 5 5 3 3 3 4 3 2 2 3 4 6 6 5 4 4 2 1 1 2 2 1 0 0 1 2 3 4 4 4 4 4 3 3
3 3 4 4 5 5 3 2 3 3 2 2 2 1 1 4 6 5 6 4 2 2 2 3 2 2 1 0 1 1 1 2 3 3 3 4 4 3
3 3 3 6 6 6 5 3 3 3 1 0 1 1 2 2 2 2 3 4 3 2 4 4 3 2 2 1 0 1 1 1 1 2 2 4 4 3
3 3 3 6 6 6 5 3 3 2 0 1 1 1 1 1 2 3 4 4 3 3 5 4 3 4 3 2 1 1 1 1 1 1 1 2 2 2
3 5 5 6 5 4 4 3 2 1 1 1 1 0 0 2 3 3 4 6 7 6 4 3 3 3 3 3 2 1 1 0 1 1 1 1 1 1
3 3 5 5 4 3 3 3 2 0 0 1 1 1 1 2 2 2 3 3 3 3 3 3 3 4 3 2 3 2 2 1 1 1 1 0 1 2
4 2 2 2 3 3 3 2 2 2 1 1 1 1 2 2 1 2 2 2 2 3 2 2 3 3 3 3 2 2 2 1 1 1 1 0 1 2
3 1 1 2 2 2 2 2 2 1 1 1 1 1 2 2 2 2 2 2 3 3 2 2 3 2 2 1 2 2 1 1 1 1 2 1 1 1
2 1 2 2 2 3 3 2 2 1 1 1 1 1 2 2 2 2 3 3 2 2 2 2 3 3 3 1 0 3 3 2 2 1 2 2 2 2
2 2 2 2 2 2 3 2 1 1 0 1 1 1 2 2 2 3 2 2 2 2 2 2 3 3 4 4 2 1 3 3 2 2 1 1 1 3
2 2 2 2 2 2 2 2 1 1 1 1 1 1 1 2 2 3 2 3 2 2 3 3 3 4 3 3 2 0 0 3 4 3 2 1 0 0
3 3 3 3 2 2 2 1 1 1 0 0 0 1 1 2 2 3 3 3 2 2 2 2 3 3 2 3 2 2 1 0 1 3 4 4 3 3
3 3 3 3 2 2 1 1 1 0 0 0 1 1 1 1 1 2 2 2 2 2 3 3 2 2 2 3 2 2 2 1 1 0 1 4 7 8
Wind_Direction
220 221 229 236 232 232 224 218 228 251 254 241 225 211 210 214 219 215 218 223 224 227 228 230 228 228 234 241 254 266 266 280 281 265 264 286 310 318
229 228 233 237 235 235 232 234 231 237 254 249 236 223 208 216 221 215 218 223 223 221 219 216 212 216 224 229 238 248 258 266 247 251 268 294 326 333
230 234 238 234 232 232 231 233 238 239 254 266 252 236 214 214 217 212 216 214 218 216 215 211 209 208 211 216 215 221 226 233 226 244 261 285 307 321
233 236 243 243 238 236 232 235 240 241 247 260 263 241 233 221 211 207 212 211 208 211 211 210 209 210 210 212 210 209 208 207 216 229 248 268 303 316
232 235 244 246 244 246 241 237 240 245 246 250 258 253 249 227 217 216 210 214 214 212 209 211 213 215 212 207 204 205 207 207 207 201 194 221 317 324
242 241 245 247 246 243 241 239 240 240 240 240 249 247 245 228 209 218 227 219 223 213 206 212 210 209 210 204 194 193 201 204 201 189 183 182 185 347
257 252 250 253 257 248 246 240 233 236 235 236 244 241 232 218 220 209 222 216 230 204 188 208 200 195 202 195 185 190 198 203 204 194 186 185 162 21
272 270 267 256 271 264 257 251 240 232 231 233 240 234 232 227 217 208 200 213 228 196 181 196 167 183 191 195 189 197 200 201 198 191 179 168 131 50
268 277 288 288 293 272 263 269 261 254 242 230 233 234 225 216 201 203 208 221 213 175 163 176 153 189 195 205 198 200 198 197 194 187 179 171 167 155
262 261 270 278 285 294 292 285 281 275 263 247 233 236 231 210 200 200 193 153 93 104 147 163 159 182 158 211 195 194 198 196 190 186 182 175 156 132
284 278 276 271 298 318 316 310 319 315 318 280 254 233 205 186 168 148 151 153 166 178 161 147 147 123 114 175 215 181 187 184 178 173 171 159 138 114
301 293 300 304 311 323 309 294 295 302 328 8 28 51 135 159 170 175 172 169 157 173 171 146 144 131 136 19 41 40 118 159 151 151 148 150 141 116
308 307 302 316 317 318 317 285 278 300 273 151 98 77 95 124 144 141 150 164 163 168 163 147 144 140 145 151 31 51 67 88 143 142 136 141 144 140
304 303 309 316 316 316 320 315 317 338 133 154 151 144 127 134 124 117 107 95 96 132 149 142 145 156 146 143 170 71 49 58 101 108 103 132 125 137
307 314 324 329 330 331 333 339 349 21 128 170 184 223 145 140 123 109 95 94 81 78 102 126 135 139 137 148 151 144 119 77 93 124 131 143 158 158
326 331 344 348 351 351 357 0 1 27 128 159 123 93 102 112 119 128 128 124 104 78 66 93 131 136 134 132 150 170 170 185 152 132 132 150 207 203
337 356 4 7 6 1 358 358 3 20 36 69 98 105 117 116 112 117 123 125 132 144 130 98 99 108 114 133 146 177 175 182 197 160 126 129 237 225
350 356 341 341 336 333 330 332 340 358 20 80 114 126 139 141 129 116 115 128 140 147 148 142 130 105 81 42 188 181 179 185 179 166 156 170 253 248
5 342 333 329 327 326 320 314 318 332 24 95 119 131 134 135 132 136 133 128 135 142 150 150 149 146 151 176 192 190 169 162 152 159 178 186 222 262
2 343 328 321 317 315 315 314 319 340 25 90 108 129 144 145 143 147 148 147 149 150 158 163 174 178 178 171 163 180 190 176 170 175 182 193 256 291
344 334 325 316 310 307 304 311 323 325 360 67 114 139 153 146 150 154 155 163 154 164 178 189 199 168 127 111 113 129 214 205 194 181 169 158 290 311
332 328 324 320 316 306 303 308 331 353 16 39 106 127 143 145 153 160 164 165 166 163 162 146 130 129 135 154 169 168 160 27 232 227 223 205 182 193
329 326 321 319 321 324 322 324 333 323 290 246 155 145 144 148 152 157 159 158 150 141 134 137 135 137 153 167 175 182 184 188 185 212 264 249 235 238
Height
1471 1474 1476 1478 1480 1481 1481 1482 1483 1480 1477 1478 1480 1481 1483 1484 1484 1484 1484 1484 1484 1484 1483 1483 1483 1483 1483 1483 1483 1483 1483 1483 1483 1483 1483 1484 1484 1484
1465 1467 1468 1470 1472 1473 1474 1475 1475 1474 1471 1470 1472 1473 1475 1475 1476 1476 1476 1476 1476 1476 1476 1476 1476 1476 1476 1477 1477 1478 1478 1477 1477 1479 1479 1480 1480 1481
1458 1460 1461 1463 1464 1465 1466 1467 1467 1467 1465 1463 1465 1465 1466 1467 1468 1469 1469 1469 1469 1469 1469 1469 1470 1470 1470 1471 1472 1472 1473 1473 1473 1474 1475 1476 1476 1477
1451 1453 1454 1455 1456 1458 1458 1459 1459 1459 1459 1457 1457 1457 1458 1459 1460 1461 1461 1461 1462 1462 1463 1463 1464 1464 1464 1465 1466 1467 1468 1468 1469 1470 1471 1472 1472 1473
1445 1446 1447 1448 1448 1449 1450 1450 1451 1451 1452 1451 1450 1450 1451 1452 1452 1453 1454 1454 1454 1456 1456 1457 1457 1458 1459 1460 1461 1462 1464 1464 1465 1466 1467 1468 1469 1470
1439 1439 1440 1441 1441 1441 1442 1442 1443 1443 1443 1443 1443 1443 1443 1444 1445 1445 1445 1446 1447 1449 1449 1450 1451 1453 1454 1455 1456 1458 1459 1460 1461 1462 1463 1464 1465 1466
1432 1433 1433 1434 1434 1434 1434 1434 1435 1434 1435 1435 1435 1435 1435 1436 1437 1437 1439 1439 1440 1442 1443 1444 1446 1447 1448 1450 1451 1453 1455 1456 1457 1458 1459 1461 1462 1462
1426 1426 1427 1427 1427 1427 1427 1428 1428 1427 1427 1427 1427 1427 1427 1429 1430 1431 1432 1433 1433 1436 1437 1438 1440 1442 1443 1445 1447 1449 1450 1451 1453 1454 1455 1457 1458 1459
1420 1420 1420 1420 1420 1420 1420 1420 1420 1420 1421 1421 1420 1421 1422 1422 1424 1424 1426 1427 1428 1429 1431 1432 1435 1437 1439 1441 1442 1444 1446 1447 1448 1450 1451 1453 1454 1456
1415 1415 1415 1414 1414 1414 1413 1413 1413 1413 1414 1415 1415 1415 1416 1417 1418 1419 1420 1421 1423 1424 1426 1427 1430 1433 1435 1436 1438 1440 1442 1443 1445 1446 1448 1450 1451 1452
1411 1410 1410 1410 1409 1409 1408 1407 1406 1407 1408 1409 1409 1410 1410 1411 1412 1413 1414 1415 1416 1419 1421 1424 1426 1428 1430 1432 1434 1436 1438 1439 1441 1442 1444 1446 1447 1449
1406 1406 1406 1405 1404 1403 1403 1402 1402 1402 1403 1403 1404 1404 1405 1405 1407 1408 1410 1411 1412 1414 1417 1420 1422 1424 1426 1428 1430 1432 1434 1436 1437 1439 1440 1442 1443 1445
1402 1401 1401 1400 1399 1399 1399 1399 1398 1398 1398 1399 1399 1399 1400 1401 1402 1404 1406 1408 1409 1411 1414 1416 1418 1420 1423 1424 1426 1428 1430 1432 1434 1435 1437 1439 1440 1442
1398 1397 1397 1396 1396 1395 1395 1394 1394 1394 1394 1394 1394 1395 1395 1397 1398 1400 1401 1403 1405 1408 1410 1413 1414 1416 1418 1420 1423 1425 1427 1429 1431 1432 1434 1435 1437 1439
1395 1394 1394 1393 1392 1392 1391 1391 1391 1391 1390 1391 1391 1391 1393 1394 1395 1396 1397 1399 1402 1404 1406 1409 1411 1414 1416 1417 1419 1421 1423 1425 1427 1429 1431 1432 1434 1435
1392 1391 1390 1390 1390 1389 1388 1388 1388 1388 1388 1388 1389 1389 1390 1391 1392 1393 1395 1396 1399 1401 1404 1406 1409 1411 1413 1415 1417 1418 1420 1422 1424 1425 1427 1429 1431 1432
1389 1388 1387 1387 1386 1386 1386 1386 1386 1385 1385 1386 1386 1387 1388 1389 1390 1391 1393 1394 1396 1398 1401 1404 1406 1408 1410 1412 1414 1416 1417 1419 1421 1423 1424 1426 1428 1429
1388 1386 1385 1385 1384 1384 1383 1383 1383 1383 1383 1383 1384 1385 1386 1387 1388 1390 1391 1393 1394 1396 1399 1401 1403 1405 1408 1410 1413 1414 1415 1417 1418 1420 1421 1423 1425 1427
1386 1385 1384 1383 1383 1382 1382 1382 1381 1381 1381 1382 1382 1383 1385 1386 1387 1388 1389 1391 1393 1395 1397 1399 1401 1403 1405 1407 1410 1412 1413 1414 1416 1417 1419 1420 1421 1423
1384 1383 1383 1382 1381 1381 1381 1380 1380 1380 1380 1381 1381 1382 1383 1384 1385 1387 1388 1390 1392 1393 1395 1397 1399 1401 1403 1405 1407 1409 1411 1412 1413 1415 1416 1417 1419 1420
1383 1382 1381 1381 1380 1380 1379 1379 1379 1379 1379 1379 1380 1381 1382 1383 1384 1385 1387 1389 1390 1392 1393 1395 1397 1399 1401 1403 1405 1406 1408 1410 1411 1412 1413 1414 1415 1416
1382 1381 1380 1379 1379 1378 1378 1378 1378 1377 1378 1378 1379 1380 1380 1381 1382 1384 1386 1387 1389 1390 1392 1394 1395 1397 1399 1401 1402 1404 1406 1407 1408 1409 1411 1412 1412 1413
1381 1380 1379 1378 1378 1377 1376 1376 1376 1376 1376 1377 1377 1378 1379 1380 1381 1383 1384 1386 1387 1389 1390 1392 1393 1395 1397 1399 1400 1402 1403 1404 1405 1407 1408 1409 1410 1411